User: anonymous   Login
Location: Unspecified
(0.0000°N, 0.0000°E)
Time: 04:32:22
(UTC+00:00)
Language:

ETS 8 - Orbit

View from above orbital plane
View from above orbital plane
View from above satellite
View from above satellite

Ground track
Ground track

The orbit data is extracted from the following two-line orbital elements,

1 29656U 06059A   14325.74930351 -.00000230  00000-0  00000+0 0  5525
2 29656 003.8283 065.4173 0004157 183.8908 226.8282 01.00271056 29074
Epoch (UTC): 21 November 2014 17:58:59
Eccentricity: 0.0004157
inclination: 3.8283°
perigee height: 35769 km
apogee height: 35804 km
right ascension of ascending node: 65.4173°
argument of perigee: 183.8908°
revolutions per day: 1.00271056
mean anomaly at epoch: 226.8282°
orbit number at epoch: 2907

The dashed part of the orbit path shows where the satellite is in the earth's shadow,  

DLR